Back to catalog

SL-14 R/B

AlivePO
NORAD 16736·ROCKET BODY·🇷🇺 Russia

Launched May 27, 1986 from Plesetsk Cosmodrome

Loading…

Next Passes (next 24 hours)

TLE

FreshSource: Space-Track

Epoch: Sep 14, 2026, 08:03 UTC

1 16736U 86039B   26257.33586049  .00000013  00000-0 -13193-5 0  9996
2 16736  82.5372 219.6732 0012428 340.8061  19.2629 13.84861303 36703

Track SL-14 R/B in real time with AllMySat

Download on the App Store